North Las Vegas, NV

12:44 PM PDT on June 23, 2017 (GMT -0700)
North Las Vegas

Weather History for KVGT - February, 2013

Change the Weather History Date:

Saturday, February 9, 2013

  Actual Average Record
Temperature  
Mean Temperature 48 °F 51 °F  
Max Temperature 53 °F 61 °F 79 °F (2015)
Min Temperature 42 °F 41 °F 32 °F (2003)
Degree Days  
Heating Degree Days 18 14  
Month to date heating degree days 129  
Since 1 July heating degree days 1536  
Cooling Degree Days 0 0  
Month to date cooling degree days 0  
Year to date cooling degree days 0  
Moisture  
Dew Point 21 °F    
Average Humidity 37    
Maximum Humidity 58    
Minimum Humidity 24    
Precipitation  
Precipitation 0.00 in 0.03 in 0.23 in (2010)
Month to date precipitation 0.22  
Year to date precipitation 0.92  
Sea Level Pressure  
Sea Level Pressure 29.89 in    
Wind  
Wind Speed 12 mph (NNW)    
Max Wind Speed 24 mph    
Max Gust Speed 33 mph    
Visibility 10 miles    
Events      
T = Trace of Precipitation, MM = Missing Value Source: NWS Daily Summary

Daily Weather History Graph

Daily Weather History Graph

Search for Another Location

Airport or City:

Trip Planner

Search our weather history database for the weather conditions in past years. The results will help you decide how hot, cold, wet, or windy it might be!

Date:

Astronomy

Feb. 09, 2013 Rise Set
Actual Time 6:34 AM PST 5:16 PM PST
Civil Twilight 6:07 AM PST 5:42 PM PST
Nautical Twilight 5:37 AM PST 6:13 PM PST
Astronomical Twilight 5:07 AM PST 6:43 PM PST
Moon 5:49 AM PST (2/9) 5:02 PM PST (2/9)
Length of Visible Light 11h 35m
Length of Day
10h 41m
Waning Crescent, 0% of the Moon is Illuminated
Feb 9
Waning Crescent
Feb 9
New
Feb 17
First Quarter
Feb 25
Full
Mar 4
Last Quarter

Hourly Weather History & Observations

Time (PST) Temp. Windchill Dew Point Humidity Pressure Visibility Wind Dir Wind Speed Gust Speed Precip Events Conditions
12:53 AM 42.1 °F 37.7 °F 23.0 °F 47% 29.78 in 10.0 mi North 6.9 mph - N/A   Clear
1:53 AM 42.1 °F 35.2 °F 26.1 °F 53% 29.77 in 10.0 mi NNW 12.7 mph - N/A   Mostly Cloudy
2:53 AM 42.1 °F 33.6 °F 28.0 °F 58% 29.77 in 10.0 mi North 18.4 mph 21.9 mph N/A   Overcast
3:53 AM 42.1 °F 36.6 °F 28.0 °F 58% 29.78 in 10.0 mi North 9.2 mph - 0.00 in   Overcast
4:53 AM 42.1 °F 38.4 °F 28.0 °F 58% 29.80 in 10.0 mi NW 5.8 mph - N/A   Overcast
5:53 AM 42.1 °F 36.1 °F 25.0 °F 51% 29.81 in 10.0 mi NNW 10.4 mph - N/A   Mostly Cloudy
6:53 AM 42.1 °F 36.6 °F 24.1 °F 49% 29.84 in 10.0 mi NNE 9.2 mph - N/A   Partly Cloudy
7:53 AM 43.0 °F 37.7 °F 24.1 °F 47% 29.86 in 10.0 mi North 9.2 mph 19.6 mph N/A   Overcast
8:53 AM 45.0 °F 38.5 °F 21.9 °F 40% 29.88 in 10.0 mi North 13.8 mph 21.9 mph N/A   Overcast
9:53 AM 48.0 °F - 19.9 °F 33% 29.88 in 10.0 mi NNW 24.2 mph 31.1 mph N/A   Partly Cloudy
10:53 AM 48.9 °F - 19.0 °F 31% 29.90 in 10.0 mi North 21.9 mph 29.9 mph N/A   Clear
11:53 AM 50.0 °F - 18.0 °F 28% 29.88 in 10.0 mi North 24.2 mph 33.4 mph N/A   Partly Cloudy
12:53 PM 52.0 °F - 18.0 °F 26% 29.88 in 10.0 mi NNW 20.7 mph 33.4 mph N/A   Clear
1:53 PM 52.0 °F - 18.0 °F 26% 29.89 in 10.0 mi NNW 17.3 mph 27.6 mph N/A   Clear
2:53 PM 53.1 °F - 17.1 °F 24% 29.90 in 10.0 mi NNW 16.1 mph 28.8 mph N/A   Clear
3:53 PM 52.0 °F - 17.1 °F 25% 29.91 in 10.0 mi North 15.0 mph 24.2 mph N/A   Clear
4:53 PM 52.0 °F - 17.1 °F 25% 29.93 in 10.0 mi NNW 8.1 mph - N/A   Clear
5:53 PM 50.0 °F - 18.0 °F 28% 29.93 in 10.0 mi NW 8.1 mph - N/A   Clear
6:53 PM 48.9 °F - 18.0 °F 29% 29.94 in 10.0 mi WNW 5.8 mph - N/A   Clear
7:53 PM 48.9 °F - 18.0 °F 29% 29.96 in 10.0 mi West 5.8 mph - N/A   Clear
8:53 PM 44.1 °F - 19.0 °F 37% 29.99 in 10.0 mi Calm Calm - N/A   Clear
9:53 PM 48.0 °F - 16.0 °F 28% 29.98 in 10.0 mi NW 16.1 mph - N/A   Clear
10:53 PM 45.0 °F 41.2 °F 17.1 °F 33% 30.01 in 10.0 mi North 6.9 mph - N/A   Clear
11:53 PM 45.0 °F 37.9 °F 16.0 °F 31% 30.01 in 10.0 mi NNW 16.1 mph - N/A   Clear